sat.trackr.live / text

‹ back to catalog

TJS-9

NORAD 50574 · 2021-135A

PAYLOAD ACTIVE UNKNOWN

§ Identity

Operator
Country
PRC
Launch date
2021-12-29
Launch site
XICLF
Launch vehicle
Mass (kg)
RCS (m²)

Purposes: comms

External: N2YO · Heavens-Above · Gunter

§ Orbital elements

Epoch: 2026-05-25T04:23:36.024576Z

Period
1,436.14 min
Inclination
0.0755°
Eccentricity
0.0004273
Mean motion
1.00268705 rev/d
Perigee alt
35,769.4 km
Apogee alt
35,805.5 km
Semi-major
42,165.6 km
B*
0.0000e+0
RAAN
74.4363°
Arg perigee
18.2327°
Mean anomaly
353.2180°
Rev number
1,620

§ Raw data

TJS-91 50574U 21135A   26145.18305584 -.00000301  00000+0  00000+0 0  99982 50574   0.0755  74.4363 0004273  18.2327 353.2180  1.00268705 16206

JSON: /api/v1/satellites/50574 · /tle

For live sub-satellite position, see the globe view (requires WebGL).

§ Visibility from observer

Set your observer location to see the next 7 days of passes ≥ 10°. The values pass through the URL so the page stays shareable.

No JS? Fill the form by hand. The geolocation button needs JavaScript.